TimeMDT,TemperatureF,Dew PointF,Humidity,Sea Level PressureIn,VisibilityMPH,Wind Direction,Wind SpeedMPH,Gust SpeedMPH,PrecipitationIn,Events,Conditions,WindDirDegrees,DateUTC
12:53 AM,70.0,61.0,73,29.89,10.0,SW,15.0,-,N/A,,Scattered Clouds,220,2013-09-01 06:53:00
1:53 AM,66.0,61.0,84,29.93,10.0,NNE,5.8,-,N/A,,Clear,20,2013-09-01 07:53:00
2:53 AM,64.9,60.1,84,29.92,10.0,NNE,5.8,-,N/A,,Clear,20,2013-09-01 08:53:00
3:53 AM,64.9,59.0,81,29.91,10.0,Calm,Calm,-,N/A,,Clear,0,2013-09-01 09:53:00
4:53 AM,63.0,60.1,90,29.93,10.0,NNW,5.8,-,N/A,,Clear,330,2013-09-01 10:53:00
5:53 AM,63.0,61.0,93,29.94,10.0,North,8.1,-,N/A,,Clear,10,2013-09-01 11:53:00
6:53 AM,64.0,59.0,84,29.98,10.0,NE,11.5,-,N/A,,Clear,40,2013-09-01 12:53:00
7:53 AM,66.9,60.1,79,30.01,10.0,NNE,13.8,-,N/A,,Clear,30,2013-09-01 13:53:00
8:53 AM,69.1,55.0,61,30.03,10.0,ENE,19.6,-,N/A,,Clear,60,2013-09-01 14:53:00
9:53 AM,73.9,53.1,48,30.06,10.0,ENE,17.3,-,N/A,,Clear,60,2013-09-01 15:53:00
10:53 AM,77.0,50.0,39,30.06,10.0,NE,15.0,23.0,N/A,,Clear,50,2013-09-01 16:53:00
11:53 AM,80.1,48.0,32,30.04,10.0,ENE,13.8,-,N/A,,Clear,60,2013-09-01 17:53:00
12:53 PM,82.0,48.0,30,30.03,10.0,NE,9.2,-,N/A,,Clear,40,2013-09-01 18:53:00
1:53 PM,82.9,48.0,29,30.03,10.0,ENE,5.8,-,N/A,,Clear,70,2013-09-01 19:53:00
2:53 PM,84.0,46.9,27,30.01,10.0,East,9.2,-,N/A,,Clear,80,2013-09-01 20:53:00
3:53 PM,84.9,44.1,24,30.00,10.0,Variable,5.8,-,N/A,,Clear,0,2013-09-01 21:53:00
4:53 PM,84.9,45.0,25,29.99,10.0,Variable,5.8,-,N/A,,Clear,0,2013-09-01 22:53:00
5:53 PM,84.0,45.0,25,29.99,10.0,East,4.6,-,N/A,,Clear,80,2013-09-01 23:53:00
6:53 PM,78.1,51.1,39,30.00,10.0,East,4.6,-,N/A,,Clear,100,2013-09-02 00:53:00
7:53 PM,68.0,51.1,55,30.02,10.0,East,5.8,-,N/A,,Clear,80,2013-09-02 01:53:00
8:53 PM,64.9,50.0,58,30.05,10.0,East,5.8,-,N/A,,Clear,90,2013-09-02 02:53:00
9:53 PM,64.9,50.0,58,30.05,10.0,SSE,6.9,-,N/A,,Clear,160,2013-09-02 03:53:00
10:53 PM,63.0,50.0,63,30.06,10.0,South,6.9,-,N/A,,Clear,170,2013-09-02 04:53:00
11:53 PM,63.0,48.9,60,30.06,10.0,SSW,5.8,-,N/A,,Clear,200,2013-09-02 05:53:00